{"data":{"norad_id":64120,"epoch":"2026-09-20T22:00:03.000096Z","epoch_age_seconds":104455,"freshness":"FRESH","line1":"1 64120U 25110AA  26263.91670139 -.00012065  00000+0 -35593-3 0  9990","line2":"2 64120  53.1600 199.4473 0001503  87.5621 137.7491 15.33561369  5611","mean_motion":15.33561369,"eccentricity":0.0001503,"inclination_deg":53.16,"raan_deg":199.4473,"arg_perigee_deg":87.5621,"mean_anomaly_deg":137.7491,"bstar":-0.00035593,"rev_number":561,"period_min":93.89907890931,"perigee_km":464.16841100593,"apogee_km":466.22551719554,"semimajor_km":6843.3339641007,"source":"CELESTRAK","updated_at":"2026-09-21T09:00:35.231673Z"}}